LES 1

operational
NORAD ID: 1002 Int'l Des: 1965-008 Owner: AFSSD Country: US
MEOCIRCULAR

Über LES 1

Beschreibung wird geladen...

Live-Position

3D-Globus wird geladen...

Nächste Überflüge

Höhenverlauf

Altitude vs Time

uPlot chart will show altitude changes over time

Zweizeiliger Elementsatz

1 01002U 65008C 26063.01653134 .00000017 00000-0 11894-2 0 9995
2 01002 32.1447 293.8653 0015807 251.5177 108.3602 9.88354910205780
Epoch: 4. März 2026 • Age: 21 hours

Aktueller Status

Höhe 2789.2 km
Geschwindigkeit 6.60 km/s
Subsatellitenpunkt 0.95°N, 7.39°W
Typ other

Große Konstellationen

Loading constellations...